Weather History for Bar Harbor, ME

Change the Weather History Date:

Thursday, December 12, 2013

  Actual Average Record
Temperature  
Mean Temperature 10 °F -  
Max Temperature 15 °F 36 °F 57 °F (2008)
Min Temperature 6 °F 19 °F -7 °F (1977)
Degree Days  
Heating Degree Days 54    
Moisture  
Dew Point 1 °F    
Average Humidity 62    
Maximum Humidity 92    
Minimum Humidity 35    
Precipitation  
Precipitation 0.00 in - - ()
Sea Level Pressure  
Sea Level Pressure 30.13 in    
Wind  
Wind Speed 5 mph (WNW)    
Max Wind Speed 14 mph    
Max Gust Speed 23 mph    
Visibility 10 miles    
Events      
Averages and records for this station are not official NWS values.
T = Trace of Precipitation, MM = Missing Value Source: NWS Daily Summary

Daily Weather History Graph

Daily Weather History Graph

Search for Another Location

Airport:

Trip Planner

Search our weather history database for the weather conditions in past years. The results will help you decide how hot, cold, wet, or windy it might be!

Date:

Astronomy

Dec. 12, 2013 Rise Set
Actual Time 7:00 AM EST 3:53 PM EST
Civil Twilight 6:27 AM EST 4:27 PM EST
Nautical Twilight 5:50 AM EST 5:03 PM EST
Astronomical Twilight 5:15 AM EST 5:39 PM EST
Moon 1:06 PM EST (12/12) 2:11 AM EST (12/12)
Length of Visible Light 9h 59m
Length of Day
8h 53m
Waxing Gibbous, 80% of the Moon is Illuminated
Dec 12
Waxing Gibbous
Dec 17
Full
Dec 25
Last Quarter
Jan 1
New
Jan 7
First Quarter

Hourly Weather History & Observations

Time (EST) Temp. Windchill Dew Point Humidity Pressure Visibility Wind Dir Wind Speed Gust Speed Precip Events Conditions
12:15 AM 15.8 °F 10.2 °F 12.2 °F 86% 30.07 in 10.0 mi West 3.5 mph - N/A   Clear
12:35 AM 15.8 °F 10.2 °F 12.2 °F 86% 30.07 in 10.0 mi West 3.5 mph - N/A   Mostly Cloudy
12:55 AM 15.8 °F 10.2 °F 12.2 °F 86% 30.07 in 10.0 mi West 3.5 mph - N/A   Scattered Clouds
1:15 AM 15.8 °F 10.2 °F 12.2 °F 86% 30.08 in 7.0 mi West 3.5 mph - N/A   Scattered Clouds
1:35 AM 15.8 °F - 12.2 °F 86% 30.09 in 10.0 mi Calm Calm - N/A   Partly Cloudy
1:55 AM 15.8 °F - 12.2 °F 86% 30.09 in 10.0 mi Calm Calm - N/A   Clear
2:15 AM 14.0 °F 8.2 °F 10.4 °F 86% 30.10 in 10.0 mi West 3.5 mph - N/A   Clear
2:35 AM 14.0 °F 8.2 °F 10.4 °F 86% 30.10 in 10.0 mi NNW 3.5 mph - N/A   Partly Cloudy
2:55 AM 12.2 °F 4.3 °F 10.4 °F 92% 30.10 in 10.0 mi WNW 4.6 mph - N/A   Scattered Clouds
3:15 AM 14.0 °F 6.5 °F 10.4 °F 86% 30.11 in 10.0 mi WNW 4.6 mph - N/A   Partly Cloudy
3:35 AM 14.0 °F 6.5 °F 8.6 °F 79% 30.11 in 10.0 mi WNW 4.6 mph - N/A   Clear
3:55 AM 12.2 °F 6.1 °F 8.6 °F 85% 30.11 in 10.0 mi WNW 3.5 mph - N/A   Clear
4:15 AM 12.2 °F 4.3 °F 8.6 °F 85% 30.12 in 10.0 mi NNW 4.6 mph - N/A   Clear
4:35 AM 10.4 °F 2.2 °F 6.8 °F 85% 30.12 in 10.0 mi WNW 4.6 mph - N/A   Clear
4:55 AM 10.4 °F -0.4 °F 6.8 °F 85% 30.12 in 10.0 mi NW 6.9 mph - N/A   Clear
5:15 AM 10.4 °F 0.8 °F 6.8 °F 85% 30.13 in 10.0 mi NW 5.8 mph - N/A   Clear
5:35 AM 10.4 °F 2.2 °F 5.0 °F 79% 30.14 in 10.0 mi WNW 4.6 mph - N/A   Clear
5:55 AM 10.4 °F -0.4 °F 3.2 °F 73% 30.14 in 10.0 mi NW 6.9 mph - N/A   Clear
6:15 AM 10.4 °F 2.2 °F 3.2 °F 73% 30.16 in 10.0 mi WNW 4.6 mph - N/A   Clear
6:35 AM 8.6 °F 2.0 °F 1.4 °F 73% 30.17 in 10.0 mi NW 3.5 mph - N/A   Clear
6:55 AM 8.6 °F 0.1 °F 1.4 °F 73% 30.18 in 10.0 mi WNW 4.6 mph - N/A   Clear
7:15 AM 8.6 °F 0.1 °F 1.4 °F 73% 30.18 in 10.0 mi NW 4.6 mph - N/A   Clear
7:35 AM 8.6 °F 0.1 °F 3.2 °F 79% 30.19 in 10.0 mi NW 4.6 mph - N/A   Clear
7:55 AM 12.2 °F 6.1 °F 3.2 °F 67% 30.20 in 10.0 mi NW 3.5 mph - N/A   Clear
8:15 AM 12.2 °F 2.9 °F 3.2 °F 67% 30.20 in 10.0 mi NW 5.8 mph - N/A   Clear
8:35 AM 12.2 °F 2.9 °F 3.2 °F 67% 30.20 in 10.0 mi NNW 5.8 mph - N/A   Clear
8:55 AM 14.0 °F 5.1 °F 1.4 °F 57% 30.21 in 10.0 mi NW 5.8 mph - N/A   Clear
9:15 AM 14.0 °F -0.2 °F -0.4 °F 53% 30.21 in 10.0 mi WNW 12.7 mph 17.3 mph N/A   Clear
9:35 AM 15.8 °F 6.1 °F 1.4 °F 53% 30.21 in 10.0 mi NNW 6.9 mph - N/A   Clear
9:55 AM 15.8 °F 1.4 °F -2.2 °F 45% 30.21 in 10.0 mi NNW 13.8 mph 17.3 mph N/A   Clear
10:15 AM 15.8 °F 3.4 °F -4.0 °F 41% 30.20 in 10.0 mi NW 10.4 mph 18.4 mph N/A   Clear
10:35 AM 15.8 °F 2.1 °F -7.6 °F 35% 30.19 in 10.0 mi WNW 12.7 mph 23.0 mph N/A   Clear
10:55 AM 15.8 °F 4.2 °F -5.8 °F 38% 30.17 in 10.0 mi WNW 9.2 mph 18.4 mph N/A   Clear
11:15 AM 15.8 °F 2.1 °F -5.8 °F 38% 30.17 in 10.0 mi NW 12.7 mph - N/A   Clear
11:35 AM 15.8 °F 4.2 °F -5.8 °F 38% 30.17 in 10.0 mi NW 9.2 mph 19.6 mph N/A   Clear
11:55 AM 15.8 °F 4.2 °F -5.8 °F 38% 30.16 in 10.0 mi NW 9.2 mph 17.3 mph N/A   Clear
12:15 PM 15.8 °F 5.1 °F -5.8 °F 38% 30.15 in 10.0 mi WNW 8.1 mph 17.3 mph N/A   Clear
12:35 PM 15.8 °F 4.2 °F -5.8 °F 38% 30.14 in 10.0 mi WNW 9.2 mph 17.3 mph N/A   Clear
12:55 PM 15.8 °F 5.1 °F -5.8 °F 38% 30.14 in 10.0 mi West 8.1 mph - N/A   Clear
1:15 PM 15.8 °F 5.1 °F -5.8 °F 38% 30.14 in 10.0 mi West 8.1 mph 17.3 mph N/A   Clear
1:35 PM 15.8 °F 4.2 °F -5.8 °F 38% 30.14 in 10.0 mi WNW 9.2 mph - N/A   Clear
1:55 PM 15.8 °F 3.4 °F -7.6 °F 35% 30.14 in 10.0 mi NW 10.4 mph 17.3 mph N/A   Clear
2:15 PM 15.8 °F 4.2 °F -7.6 °F 35% 30.14 in 10.0 mi WNW 9.2 mph 16.1 mph N/A   Clear
2:35 PM 15.8 °F 3.4 °F -7.6 °F 35% 30.14 in 10.0 mi NW 10.4 mph 16.1 mph N/A   Clear
2:55 PM 15.8 °F 6.1 °F -7.6 °F 35% 30.15 in 10.0 mi NW 6.9 mph - N/A   Clear
3:15 PM 14.0 °F 2.9 °F -7.6 °F 38% 30.15 in 10.0 mi NW 8.1 mph 17.3 mph N/A   Clear
3:35 PM 12.2 °F 4.3 °F -7.6 °F 41% 30.16 in 10.0 mi WNW 4.6 mph - N/A   Clear
3:55 PM 10.4 °F -0.4 °F -7.6 °F 44% 30.15 in 10.0 mi NW 6.9 mph - N/A   Clear
4:15 PM 10.4 °F 2.2 °F -7.6 °F 44% 30.15 in 10.0 mi NNW 4.6 mph - N/A   Clear
4:35 PM 8.6 °F -1.3 °F -5.8 °F 52% 30.14 in 10.0 mi NNW 5.8 mph - N/A   Clear
4:55 PM 8.6 °F - -5.8 °F 52% 30.15 in 10.0 mi Calm Calm - N/A   Clear
5:15 PM 8.6 °F - -7.6 °F 48% 30.14 in 10.0 mi Calm Calm - N/A   Clear
5:35 PM 6.8 °F - -5.8 °F 56% 30.14 in 10.0 mi Calm Calm - N/A   Clear
5:55 PM 6.8 °F - -5.8 °F 56% 30.14 in 10.0 mi Calm Calm - N/A   Clear
6:15 PM 6.8 °F -0.1 °F -4.0 °F 61% 30.14 in 10.0 mi SW 3.5 mph - N/A   Clear
6:35 PM 6.8 °F - -2.2 °F 67% 30.14 in 10.0 mi Calm Calm - N/A   Clear
6:55 PM 8.6 °F 2.0 °F -2.2 °F 62% 30.14 in 10.0 mi West 3.5 mph - N/A   Clear
7:15 PM 8.6 °F 2.0 °F -2.2 °F 62% 30.14 in 10.0 mi West 3.5 mph - N/A   Clear
7:35 PM 10.4 °F - -2.2 °F 57% 30.14 in 10.0 mi Calm Calm - N/A   Clear
7:55 PM 10.4 °F 4.0 °F -0.4 °F 62% 30.13 in 10.0 mi West 3.5 mph - N/A   Clear
8:15 PM 10.4 °F 4.0 °F -0.4 °F 62% 30.13 in 10.0 mi West 3.5 mph - N/A   Clear
8:35 PM 10.4 °F 2.2 °F 1.4 °F 67% 30.12 in 10.0 mi West 4.6 mph - N/A   Clear
8:55 PM 12.2 °F 6.1 °F 1.4 °F 62% 30.11 in 10.0 mi West 3.5 mph - N/A   Clear
9:15 PM 12.2 °F - 1.4 °F 62% 30.10 in 10.0 mi Calm Calm - N/A   Partly Cloudy
9:35 PM 12.2 °F - 1.4 °F 62% 30.09 in 10.0 mi Calm Calm - N/A   Partly Cloudy
9:55 PM 14.0 °F - 1.4 °F 57% 30.07 in 10.0 mi Calm Calm - N/A   Mostly Cloudy
10:15 PM 14.0 °F - 1.4 °F 57% 30.05 in 10.0 mi Calm Calm - N/A   Mostly Cloudy
10:35 PM 12.2 °F - 3.2 °F 67% 30.04 in 10.0 mi Calm Calm - N/A   Scattered Clouds
10:55 PM 12.2 °F - 5.0 °F 73% 30.03 in 10.0 mi Calm Calm - N/A   Scattered Clouds
11:15 PM 10.4 °F - 3.2 °F 73% 30.01 in 10.0 mi Calm Calm - N/A   Mostly Cloudy
11:35 PM 12.2 °F - 5.0 °F 73% 29.99 in 9.0 mi Calm Calm - N/A   Mostly Cloudy
11:55 PM 10.4 °F 2.2 °F 5.0 °F 79% 29.98 in 10.0 mi West 4.6 mph - N/A   Mostly Cloudy